Weather History for Springfield, MO

Change the Weather History Date:

Saturday, May 11, 2013

  Actual Average Record
Temperature  
Mean Temperature 57 °F 63 °F  
Max Temperature 71 °F 74 °F 90 °F (1963)
Min Temperature 43 °F 53 °F 34 °F (1969)
Degree Days  
Heating Degree Days 8 4  
Month to date heating degree days 118 51  
Since 1 July heating degree days 4470 4525  
Cooling Degree Days 0 2  
Month to date cooling degree days 6 17  
Year to date cooling degree days 23 42  
Growing Degree Days 7 (Base 50)    
Moisture  
Dew Point 44 °F    
Average Humidity 63    
Maximum Humidity 100    
Minimum Humidity 26    
Precipitation  
Precipitation 0.00 in 0.18 in 1.88 in (1918)
Month to date precipitation 1.91 1.96  
Year to date precipitation 17.66 14.89  
Snow  
Snow 0.00 in - - ()
Month to date snowfall 1.4  
Since 1 July snowfall 12.7  
Snow Depth 0.00 in    
Sea Level Pressure  
Sea Level Pressure 30.09 in    
Wind  
Wind Speed 10 mph (NW)    
Max Wind Speed 24 mph    
Max Gust Speed 29 mph    
Visibility 6 miles    
Events Fog    
T = Trace of Precipitation, MM = Missing Value Source: NWS Daily Summary

Daily Weather History Graph

Daily Weather History Graph

Search for Another Location

Airport:

Trip Planner

Search our weather history database for the weather conditions in past years. The results will help you decide how hot, cold, wet, or windy it might be!

Date:

Astronomy

May. 11, 2013 Rise Set
Actual Time 6:08 AM CDT 8:12 PM CDT
Civil Twilight 5:39 AM CDT 8:41 PM CDT
Nautical Twilight 5:04 AM CDT 9:16 PM CDT
Astronomical Twilight 4:26 AM CDT 9:54 PM CDT
Moon 7:17 AM CDT (5/11) 9:52 PM CDT (5/11)
Length of Visible Light 15h 01m
Length of Day
14h 03m
Waxing Crescent, 3% of the Moon is Illuminated
May 11
Waxing Crescent
May 17
First Quarter
May 24
Full
May 31
Last Quarter
Jun 8
New

Hourly Weather History & Observations

Time (CDT) Temp. Windchill Dew Point Humidity Pressure Visibility Wind Dir Wind Speed Gust Speed Precip Events Conditions
12:52 AM 48.9 °F - 46.9 °F 93% 30.06 in 9.0 mi Calm Calm - N/A   Clear
1:44 AM 46.0 °F - 44.1 °F 93% 30.07 in 1.8 mi Calm Calm - N/A   Clear
1:52 AM 46.0 °F - 45.0 °F 96% 30.06 in 0.5 mi Calm Calm - N/A Fog Fog
2:04 AM 46.9 °F - 46.0 °F 97% 30.07 in 0.2 mi Calm Calm - N/A Fog Fog
2:11 AM 46.9 °F - 46.0 °F 97% 30.07 in 1.0 mi Calm Calm - N/A   Mist
2:30 AM 46.4 °F - 44.6 °F 93% 30.07 in 1.2 mi Calm Calm - N/A   Clear
2:34 AM 45.0 °F - 45.0 °F 100% 30.07 in 0.8 mi Calm Calm - N/A   Mist
2:50 AM 46.4 °F 45.2 °F 44.6 °F 93% 30.07 in 0.2 mi WSW 3.5 mph - N/A Fog Fog
2:52 AM 46.0 °F 44.8 °F 45.0 °F 96% 30.07 in 0.5 mi WSW 3.5 mph - N/A Fog Fog
3:02 AM 45.0 °F 42.6 °F 45.0 °F 100% 30.08 in 0.2 mi SW 4.6 mph - N/A Fog Fog
3:22 AM 46.9 °F - 46.0 °F 97% 30.07 in 1.0 mi Calm Calm - N/A   Mist
3:25 AM 46.0 °F - 46.0 °F 100% 30.07 in 2.5 mi Calm Calm - N/A   Scattered Clouds
3:36 AM 46.0 °F - 44.1 °F 93% 30.07 in 1.0 mi Calm Calm - N/A   Mist
3:44 AM 46.0 °F - 45.0 °F 96% 30.07 in 0.8 mi Calm Calm - N/A   Mist
3:49 AM 46.4 °F - 44.6 °F 93% 30.07 in 1.2 mi Calm Calm - N/A   Clear
3:52 AM 46.0 °F - 45.0 °F 96% 30.07 in 2.0 mi Calm Calm - N/A   Clear
3:57 AM 46.0 °F - 45.0 °F 96% 30.07 in 3.0 mi Calm Calm - N/A   Scattered Clouds
4:16 AM 45.0 °F - 44.1 °F 97% 30.07 in 2.5 mi Calm Calm - N/A   Partly Cloudy
4:35 AM 44.1 °F - 43.0 °F 96% 30.06 in 8.0 mi Calm Calm - N/A   Partly Cloudy
4:50 AM 44.6 °F - 42.8 °F 93% 30.06 in 1.8 mi Calm Calm - N/A   Clear
4:52 AM 44.1 °F - 43.0 °F 96% 30.05 in 1.5 mi Calm Calm - N/A   Clear
5:37 AM 46.0 °F 44.8 °F 45.0 °F 96% 30.06 in 3.0 mi WNW 3.5 mph - N/A   Clear
5:52 AM 46.9 °F - 46.0 °F 97% 30.05 in 2.5 mi West 4.6 mph - N/A   Clear
6:00 AM 46.0 °F - 46.0 °F 100% 30.06 in 4.0 mi Calm Calm - N/A   Clear
6:52 AM 48.0 °F - 46.9 °F 96% 30.07 in 5.0 mi West 3.5 mph - N/A   Clear
7:52 AM 54.0 °F - 50.0 °F 86% 30.08 in 10.0 mi WNW 6.9 mph - N/A   Clear
8:52 AM 57.9 °F - 51.1 °F 78% 30.09 in 10.0 mi WNW 6.9 mph - N/A   Clear
9:52 AM 63.0 °F - 50.0 °F 63% 30.09 in 10.0 mi NW 8.1 mph - N/A   Clear
10:52 AM 66.9 °F - 50.0 °F 54% 30.08 in 10.0 mi NW 8.1 mph - N/A   Clear
11:52 AM 70.0 °F - 51.1 °F 51% 30.09 in 10.0 mi NNW 15.0 mph 23.0 mph N/A   Clear
12:52 PM 71.1 °F - 52.0 °F 51% 30.09 in 10.0 mi NNW 18.4 mph 27.6 mph N/A   Partly Cloudy
1:52 PM 71.1 °F - 53.1 °F 53% 30.10 in 10.0 mi North 23.0 mph 27.6 mph N/A   Scattered Clouds
2:52 PM 69.1 °F - 44.1 °F 40% 30.12 in 10.0 mi NNW 18.4 mph 25.3 mph N/A   Clear
3:52 PM 69.1 °F - 37.0 °F 31% 30.12 in 10.0 mi NNW 15.0 mph 24.2 mph N/A   Clear
4:52 PM 66.9 °F - 30.9 °F 26% 30.13 in 10.0 mi North 18.4 mph 28.8 mph N/A   Clear
5:52 PM 66.0 °F - 35.1 °F 32% 30.13 in 10.0 mi North 19.6 mph 24.2 mph N/A   Clear
6:52 PM 63.0 °F - 34.0 °F 34% 30.14 in 10.0 mi NNW 18.4 mph 24.2 mph N/A   Clear
7:52 PM 57.9 °F - 34.0 °F 41% 30.15 in 10.0 mi North 12.7 mph - N/A   Clear
8:52 PM 54.0 °F - 34.0 °F 47% 30.17 in 10.0 mi North 6.9 mph - N/A   Clear
9:52 PM 52.0 °F - 36.0 °F 54% 30.18 in 10.0 mi North 5.8 mph - N/A   Clear
10:52 PM 50.0 °F - 35.1 °F 57% 30.19 in 10.0 mi North 5.8 mph - N/A   Clear
11:52 PM 48.2 °F - 33.8 °F 58% 30.21 in 10.0 mi NNW 5.8 mph - N/A   Clear